• în Republica Moldova
  • Lista ţărilor
  • Pe 7 zile
  • Temperatura apei
  • Hartă satelitară
  • Meteo pe hartă
  • Widget-uri
  • user-avatar
    Intrare

    Meteo pe oră la Innsbruck

    Astăzi, 23 Iulie, Duminică

    Timp Temperatura Precipitaţii Vânt Presiune Umiditate
    00:00 +10°C° 1,2 mm 1 m/s 599 mmHg 93%
    01:00 +10°C° 1,2 mm 1 m/s 598 mmHg 94%
    02:00 +10°C° 0,8 mm 1 m/s 598 mmHg 94%
    03:00 +10°C° 0,8 mm 1 m/s 598 mmHg 94%
    04:00 +8°C° 0,8 mm 0 m/s 598 mmHg 94%
    05:00 +9°C° 0 mm 0 m/s 599 mmHg 91%
    06:00 +10°C° 0 mm 0 m/s 599 mmHg 88%
    07:00 +11°C° 0 mm 0 m/s 600 mmHg 85%
    08:00 +13°C° 0,2 mm 1 m/s 600 mmHg 79%
    09:00 +14°C° 0,2 mm 1 m/s 601 mmHg 72%
    10:00 +15°C° 0,2 mm 1 m/s 601 mmHg 66%
    11:00 +15°C° 0,4 mm 1 m/s 601 mmHg 69%
    12:00 +15°C° 0,4 mm 1 m/s 601 mmHg 72%
    13:00 +15°C° 0,4 mm 1 m/s 601 mmHg 75%
    14:00 +14°C° 1 mm 2 m/s 600 mmHg 79%
    15:00 +14°C° 1 mm 2 m/s 600 mmHg 83%
    16:00 +13°C° 1 mm 2 m/s 600 mmHg 87%
    17:00 +12°C° 0,7 mm 2 m/s 599 mmHg 90%
    18:00 +12°C° 0,7 mm 1 m/s 599 mmHg 92%
    19:00 +11°C° 0,7 mm 1 m/s 599 mmHg 94%
    20:00 +11°C° 0,5 mm 1 m/s 599 mmHg 95%
    21:00 +10°C° 0,5 mm 1 m/s 599 mmHg 96%
    22:00 +10°C° 0,5 mm 1 m/s 599 mmHg 97%
    23:00 +10°C° 0,3 mm 1 m/s 598 mmHg 97%

    Mâine, 24 Iulie, Luni

    Timp Temperatura Precipitaţii Vânt Presiune Umiditate
    00:00 +9°C° 0,3 mm 1 m/s 598 mmHg 97%
    01:00 +9°C° 0,3 mm 1 m/s 597 mmHg 97%
    02:00 +8°C° 0,8 mm 0 m/s 597 mmHg 97%
    03:00 +8°C° 0,8 mm 0 m/s 596 mmHg 97%
    04:00 +7°C° 0,8 mm 0 m/s 595 mmHg 97%
    05:00 +8°C° 0,5 mm 0 m/s 595 mmHg 95%
    06:00 +9°C° 0,5 mm 0 m/s 595 mmHg 94%
    07:00 +9°C° 0,5 mm 0 m/s 595 mmHg 92%
    08:00 +11°C° 0,9 mm 1 m/s 595 mmHg 89%
    09:00 +12°C° 0,9 mm 1 m/s 595 mmHg 86%
    10:00 +12°C° 0,9 mm 1 m/s 595 mmHg 82%
    11:00 +12°C° 1,8 mm 1 m/s 595 mmHg 85%
    12:00 +11°C° 1,8 mm 1 m/s 594 mmHg 87%
    13:00 +11°C° 1,8 mm 1 m/s 594 mmHg 89%
    14:00 +10°C° 3,7 mm 1 m/s 593 mmHg 92%
    15:00 +8°C° 3,7 mm 2 m/s 593 mmHg 94%
    16:00 +7°C° 3,7 mm 2 m/s 592 mmHg 96%
    17:00 +7°C° 2,5 mm 2 m/s 592 mmHg 97%
    18:00 +6°C° 2,5 mm 2 m/s 592 mmHg 97%
    19:00 +5°C° 2,5 mm 2 m/s 592 mmHg 97%
    20:00 +5°C° 0,9 mm 2 m/s 592 mmHg 97%
    21:00 +5°C° 0,9 mm 2 m/s 592 mmHg 97%
    22:00 +5°C° 0,9 mm 2 m/s 592 mmHg 97%
    23:00 +4°C° 0,2 mm 2 m/s 592 mmHg 96%

    Poimâine, 25 Iulie, Marţi

    Timp Temperatura Precipitaţii Vânt Presiune Umiditate
    00:00 +4°C° 0,2 mm 2 m/s 592 mmHg 96%
    01:00 +3°C° 0,2 mm 2 m/s 592 mmHg 95%
    02:00 +3°C° 0 mm 2 m/s 591 mmHg 95%
    03:00 +2°C° 0 mm 2 m/s 591 mmHg 95%
    04:00 +2°C° 0 mm 2 m/s 590 mmHg 95%
    05:00 +3°C° 0 mm 2 m/s 591 mmHg 92%
    06:00 +3°C° 0 mm 2 m/s 591 mmHg 90%
    07:00 +4°C° 0 mm 2 m/s 591 mmHg 87%
    08:00 +6°C° 0 mm 2 m/s 592 mmHg 80%
    09:00 +7°C° 0 mm 2 m/s 592 mmHg 73%
    10:00 +8°C° 0 mm 2 m/s 593 mmHg 65%
    11:00 +9°C° 0,2 mm 2 m/s 593 mmHg 64%
    12:00 +9°C° 0,2 mm 2 m/s 593 mmHg 63%
    13:00 +10°C° 0,2 mm 3 m/s 593 mmHg 62%
    14:00 +9°C° 0,3 mm 3 m/s 593 mmHg 63%
    15:00 +9°C° 0,3 mm 3 m/s 593 mmHg 64%
    16:00 +9°C° 0,3 mm 3 m/s 593 mmHg 64%
    17:00 +8°C° 0,4 mm 2 m/s 592 mmHg 70%
    18:00 +7°C° 0,4 mm 2 m/s 592 mmHg 75%
    19:00 +6°C° 0,4 mm 2 m/s 591 mmHg 80%
    20:00 +5°C° 0,3 mm 2 m/s 591 mmHg 85%
    21:00 +5°C° 0,3 mm 1 m/s 591 mmHg 89%
    22:00 +4°C° 0,3 mm 1 m/s 591 mmHg 93%
    23:00 +4°C° 0 mm 1 m/s 591 mmHg 93%

    26 Iulie, Miercuri

    Timp Temperatura Precipitaţii Vânt Presiune Umiditate
    00:00 +3°C° 0 mm 1 m/s 590 mmHg 94%
    01:00 +3°C° 0 mm 1 m/s 590 mmHg 94%
    02:00 +3°C° 0 mm 1 m/s 590 mmHg 94%
    03:00 +2°C° 0 mm 1 m/s 590 mmHg 93%
    04:00 +2°C° 0 mm 1 m/s 589 mmHg 93%
    05:00 +3°C° 0,2 mm 1 m/s 590 mmHg 91%
    06:00 +4°C° 0,2 mm 1 m/s 590 mmHg 89%
    07:00 +5°C° 0,2 mm 1 m/s 591 mmHg 86%
    08:00 +5°C° 0,1 mm 2 m/s 591 mmHg 82%
    09:00 +6°C° 0,1 mm 2 m/s 592 mmHg 78%
    10:00 +7°C° 0,1 mm 2 m/s 593 mmHg 73%
    11:00 +8°C° 0,2 mm 2 m/s 593 mmHg 70%
    12:00 +10°C° 0,2 mm 2 m/s 594 mmHg 66%
    13:00 +11°C° 0,2 mm 3 m/s 594 mmHg 63%
    14:00 +10°C° 0,3 mm 3 m/s 594 mmHg 66%
    15:00 +10°C° 0,3 mm 3 m/s 594 mmHg 69%
    16:00 +10°C° 0,3 mm 3 m/s 594 mmHg 72%
    17:00 +9°C° 0,4 mm 2 m/s 594 mmHg 77%
    18:00 +8°C° 0,4 mm 2 m/s 594 mmHg 83%
    19:00 +7°C° 0,4 mm 2 m/s 594 mmHg 88%
    20:00 +6°C° 0,7 mm 2 m/s 594 mmHg 90%
    21:00 +5°C° 0,7 mm 2 m/s 594 mmHg 93%
    22:00 +5°C° 0,7 mm 2 m/s 594 mmHg 95%
    23:00 +5°C° 0,5 mm 2 m/s 594 mmHg 95%

    27 Iulie, Joi

    Timp Temperatura Precipitaţii Vânt Presiune Umiditate
    00:00 +5°C° 0,5 mm 2 m/s 594 mmHg 96%
    01:00 +5°C° 0,5 mm 2 m/s 595 mmHg 96%
    02:00 +5°C° 0,5 mm 2 m/s 595 mmHg 96%
    03:00 +5°C° 0,5 mm 2 m/s 595 mmHg 96%
    04:00 +4°C° 0,5 mm 2 m/s 595 mmHg 96%
    05:00 +5°C° 0,4 mm 2 m/s 595 mmHg 95%
    06:00 +5°C° 0,4 mm 2 m/s 595 mmHg 93%
    07:00 +5°C° 0,4 mm 2 m/s 596 mmHg 92%
    08:00 +6°C° 0,2 mm 2 m/s 596 mmHg 88%
    09:00 +7°C° 0,2 mm 2 m/s 597 mmHg 84%
    10:00 +9°C° 0,2 mm 2 m/s 597 mmHg 80%
    11:00 +10°C° 0 mm 2 m/s 598 mmHg 72%
    12:00 +13°C° 0 mm 2 m/s 599 mmHg 65%
    13:00 +15°C° 0 mm 2 m/s 599 mmHg 57%
    14:00 +15°C° 0,1 mm 2 m/s 599 mmHg 58%
    15:00 +15°C° 0,1 mm 2 m/s 599 mmHg 59%
    16:00 +15°C° 0,1 mm 2 m/s 599 mmHg 60%
    17:00 +14°C° 0,1 mm 2 m/s 599 mmHg 67%
    18:00 +13°C° 0,1 mm 2 m/s 599 mmHg 74%
    19:00 +12°C° 0,1 mm 2 m/s 598 mmHg 81%
    20:00 +10°C° 0 mm 1 m/s 598 mmHg 85%
    21:00 +8°C° 0 mm 1 m/s 598 mmHg 90%
    22:00 +7°C° 0 mm 1 m/s 597 mmHg 94%
    23:00 +6°C° 0 mm 1 m/s 597 mmHg 94%

    28 Iulie, Vineri

    Timp Temperatura Precipitaţii Vânt Presiune Umiditate
    00:00 +6°C° 0 mm 1 m/s 597 mmHg 94%
    01:00 +6°C° 0 mm 1 m/s 597 mmHg 94%
    02:00 +5°C° 0 mm 1 m/s 597 mmHg 94%
    03:00 +5°C° 0 mm 1 m/s 597 mmHg 93%
    04:00 +5°C° 0 mm 1 m/s 597 mmHg 92%
    05:00 +7°C° 0 mm 1 m/s 598 mmHg 86%
    06:00 +9°C° 0 mm 1 m/s 599 mmHg 80%
    07:00 +11°C° 0 mm 1 m/s 600 mmHg 74%
    08:00 +13°C° 0 mm 1 m/s 601 mmHg 64%
    09:00 +15°C° 0 mm 1 m/s 602 mmHg 55%
    10:00 +18°C° 0 mm 1 m/s 603 mmHg 45%
    11:00 +19°C° 0 mm 1 m/s 603 mmHg 44%
    12:00 +20°C° 0 mm 1 m/s 603 mmHg 43%
    13:00 +20°C° 0 mm 2 m/s 603 mmHg 41%
    14:00 +19°C° 0 mm 2 m/s 603 mmHg 45%
    15:00 +19°C° 0 mm 2 m/s 603 mmHg 49%
    16:00 +18°C° 0 mm 2 m/s 602 mmHg 53%
    17:00 +17°C° 0,2 mm 2 m/s 602 mmHg 62%
    18:00 +16°C° 0,2 mm 1 m/s 601 mmHg 71%
    19:00 +14°C° 0,2 mm 1 m/s 601 mmHg 80%
    20:00 +12°C° 0 mm 1 m/s 600 mmHg 85%
    21:00 +11°C° 0 mm 1 m/s 600 mmHg 90%
    22:00 +9°C° 0 mm 1 m/s 600 mmHg 95%
    23:00 +9°C° 0 mm 1 m/s 600 mmHg 95%
    Arată mai mult